TFL1925 EHAM-LATI

Flight info

Callsign TFL1925
Flight time N/A
Altitude 33000
Route EDUPO Z739 MISGO DCT DOJOH DCT DODEN DCT NEGIX DCT DINKU M867 XERUM DCT BAVAX DCT RADIZ DCT LUMUS DCT GORPA DCT TUPUS DCT ELTIB DCT GLOMY DCT PETAK
Aircraft B738/M-SDE2E3FGHIRWXY/LB1

Departure

Time 2026-04-27 19:27
Airport Amsterdam Airport Schiphol (EHAM)

Arrival

Time N/A
Airport Tirana International Airport Mother Teresa (LATI)
Time Latitude Longitude Altitude Speed Heading
2026-04-27 18:48 52.30575 4.76696 -2 ft 0 kts 215°
2026-04-27 19:05 52.30587 4.76710 -2 ft 4 kts 215°
2026-04-27 19:05 52.30607 4.76733 -2 ft 2 kts 215°
2026-04-27 19:05 52.30626 4.76754 -2 ft 4 kts 223°
2026-04-27 19:06 52.30635 4.76771 -2 ft 3 kts 304°
2026-04-27 19:06 52.30622 4.76801 -2 ft 1 kts 304°
2026-04-27 19:06 52.30622 4.76802 -2 ft 1 kts 304°
2026-04-27 19:08 52.30658 4.76751 -2 ft 12 kts 328°
2026-04-27 19:09 52.30715 4.76797 -2 ft 11 kts 95°
2026-04-27 19:09 52.30663 4.76887 -2 ft 11 kts 114°
2026-04-27 19:09 52.30632 4.76997 -2 ft 11 kts 136°
2026-04-27 19:09 52.30571 4.77065 -2 ft 10 kts 152°
2026-04-27 19:10 52.30504 4.77059 -2 ft 10 kts 218°
2026-04-27 19:10 52.30459 4.76949 -2 ft 15 kts 238°
2026-04-27 19:10 52.30398 4.76789 -2 ft 18 kts 238°
2026-04-27 19:10 52.30356 4.76678 -2 ft 17 kts 238°
2026-04-27 19:11 52.30283 4.76488 -2 ft 14 kts 238°
2026-04-27 19:11 52.30232 4.76355 -2 ft 14 kts 237°
2026-04-27 19:11 52.30183 4.76229 -2 ft 13 kts 238°
2026-04-27 19:11 52.30135 4.76106 -2 ft 13 kts 238°
2026-04-27 19:12 52.30089 4.75986 -2 ft 12 kts 238°
2026-04-27 19:12 52.30044 4.75869 -2 ft 12 kts 238°
2026-04-27 19:12 52.29998 4.75749 -2 ft 14 kts 238°
2026-04-27 19:12 52.29942 4.75603 -2 ft 15 kts 238°
2026-04-27 19:13 52.29877 4.75432 -2 ft 17 kts 238°
2026-04-27 19:13 52.29835 4.75284 -2 ft 13 kts 267°
2026-04-27 19:13 52.29865 4.75152 -2 ft 13 kts 311°
2026-04-27 19:13 52.29922 4.75045 -2 ft 12 kts 311°
2026-04-27 19:14 52.29978 4.74942 -2 ft 12 kts 311°
2026-04-27 19:14 52.30042 4.74823 -2 ft 18 kts 311°
2026-04-27 19:14 52.30133 4.74656 9 ft 18 kts 311°
2026-04-27 19:14 52.30197 4.74537 9 ft 13 kts 311°
2026-04-27 19:15 52.30257 4.74426 9 ft 13 kts 311°
2026-04-27 19:15 52.30321 4.74307 0 ft 18 kts 309°
2026-04-27 19:15 52.30423 4.74194 -2 ft 18 kts 356°
2026-04-27 19:15 52.30547 4.74201 -2 ft 18 kts
2026-04-27 19:16 52.30666 4.74212 -2 ft 17 kts
2026-04-27 19:16 52.30743 4.74221 -2 ft 16 kts
2026-04-27 19:16 52.30893 4.74236 -2 ft 16 kts
2026-04-27 19:16 52.30999 4.74246 -2 ft 15 kts
2026-04-27 19:17 52.31101 4.74257 -2 ft 14 kts
2026-04-27 19:17 52.31198 4.74266 -2 ft 14 kts
2026-04-27 19:17 52.31291 4.74274 -2 ft 13 kts
2026-04-27 19:17 52.31381 4.74283 -2 ft 13 kts
2026-04-27 19:18 52.31469 4.74289 -2 ft 12 kts
2026-04-27 19:18 52.31554 4.74297 -2 ft 12 kts
2026-04-27 19:18 52.31637 4.74305 -2 ft 12 kts
2026-04-27 19:18 52.31729 4.74315 -2 ft 14 kts
2026-04-27 19:19 52.31840 4.74326 -2 ft 17 kts
2026-04-27 19:19 52.31954 4.74337 -2 ft 15 kts
2026-04-27 19:19 52.32028 4.74256 -2 ft 14 kts 279°
2026-04-27 19:19 52.32034 4.74100 -2 ft 13 kts 273°
2026-04-27 19:20 52.32038 4.73951 -3 ft 13 kts 272°
2026-04-27 19:20 52.32043 4.73807 -2 ft 13 kts 273°
2026-04-27 19:20 52.32048 4.73668 -2 ft 12 kts 274°
2026-04-27 19:20 52.32054 4.73526 -2 ft 13 kts 274°
2026-04-27 19:21 52.32080 4.73374 -2 ft 15 kts 305°
2026-04-27 19:21 52.32165 4.73248 -2 ft 18 kts 319°
2026-04-27 19:21 52.32257 4.73120 -2 ft 17 kts 320°
2026-04-27 19:21 52.32345 4.72995 -2 ft 16 kts 319°
2026-04-27 19:22 52.32431 4.72876 -2 ft 16 kts 320°
2026-04-27 19:22 52.32512 4.72761 -2 ft 15 kts 319°
2026-04-27 19:22 52.32591 4.72650 -2 ft 15 kts 319°
2026-04-27 19:22 52.32665 4.72542 -2 ft 14 kts 315°
2026-04-27 19:23 52.32730 4.72429 -2 ft 13 kts 312°
2026-04-27 19:23 52.32790 4.72317 -2 ft 13 kts 311°
2026-04-27 19:23 52.32848 4.72211 -2 ft 13 kts 312°
2026-04-27 19:23 52.32903 4.72103 -2 ft 12 kts 310°
2026-04-27 19:24 52.32961 4.71996 -2 ft 14 kts 311°
2026-04-27 19:24 52.33033 4.71865 -2 ft 17 kts 312°
2026-04-27 19:24 52.33120 4.71706 -2 ft 18 kts 309°
2026-04-27 19:24 52.33143 4.71540 -2 ft 15 kts 251°
2026-04-27 19:25 52.33073 4.71415 -2 ft 15 kts 223°
2026-04-27 19:25 52.32999 4.71304 -2 ft 14 kts 221°
2026-04-27 19:25 52.32927 4.71201 -2 ft 13 kts 221°
2026-04-27 19:25 52.32866 4.71092 -2 ft 13 kts 249°
2026-04-27 19:26 52.32869 4.70950 -3 ft 13 kts 291°
2026-04-27 19:26 52.32944 4.70898 -4 ft 16 kts
2026-04-27 19:26 52.33284 4.70932 -5 ft 82 kts
2026-04-27 19:26 52.34044 4.70998 -4 ft 138 kts
2026-04-27 19:27 52.35123 4.71105 202 ft 165 kts
2026-04-27 19:27 52.36246 4.71237 1015 ft 160 kts
2026-04-27 19:27 52.37441 4.71351 1362 ft 187 kts
2026-04-27 19:27 52.38819 4.71478 1614 ft 210 kts
2026-04-27 19:28 52.40343 4.71617 1925 ft 225 kts
2026-04-27 19:28 52.41953 4.71840 2179 ft 242 kts 17°
2026-04-27 19:28 52.43473 4.73065 2788 ft 245 kts 30°
2026-04-27 19:28 52.44968 4.74454 3501 ft 252 kts 28°
2026-04-27 19:29 52.46500 4.75875 4277 ft 252 kts 32°
2026-04-27 19:29 52.47703 4.77945 5085 ft 258 kts 60°
2026-04-27 19:29 52.48247 4.80799 5742 ft 268 kts 80°
2026-04-27 19:29 52.48436 4.83870 6492 ft 272 kts 83°
2026-04-27 19:30 52.48574 4.86996 7139 ft 278 kts 85°
2026-04-27 19:30 52.48451 4.90172 7810 ft 282 kts 107°
2026-04-27 19:30 52.47476 4.92915 8496 ft 285 kts 134°
2026-04-27 19:30 52.45949 4.94968 9271 ft 284 kts 145°
2026-04-27 19:31 52.44315 4.96825 10003 ft 287 kts 147°
2026-04-27 19:31 52.42656 4.98684 10598 ft 293 kts 147°
2026-04-27 19:31 52.40915 5.00647 10762 ft 315 kts 147°
2026-04-27 19:31 52.39053 5.02774 10915 ft 336 kts 147°
2026-04-27 19:32 52.37087 5.05037 11071 ft 355 kts 147°
2026-04-27 19:32 52.35016 5.07427 11221 ft 373 kts 146°
2026-04-27 19:32 52.32897 5.10017 11474 ft 387 kts 139°
2026-04-27 19:32 52.31056 5.13263 12022 ft 392 kts 131°
2026-04-27 19:33 52.29320 5.16656 12519 ft 397 kts 131°
2026-04-27 19:33 52.28096 5.18978 12941 ft 398 kts 132°
2026-04-27 19:33 52.25644 5.23482 13850 ft 400 kts 133°
2026-04-27 19:33 52.23787 5.26910 14402 ft 404 kts 130°
2026-04-27 19:34 52.22089 5.30598 14976 ft 408 kts 126°
2026-04-27 19:34 52.20471 5.34435 15460 ft 414 kts 125°
2026-04-27 19:34 52.18850 5.38332 16019 ft 418 kts 125°
2026-04-27 19:34 52.17196 5.42252 16502 ft 422 kts 125°
2026-04-27 19:35 52.15503 5.46193 17089 ft 424 kts 126°
2026-04-27 19:35 52.13783 5.50148 17501 ft 431 kts 127°
2026-04-27 19:35 52.12055 5.54096 17979 ft 435 kts 127°
2026-04-27 19:35 52.10290 5.58121 18494 ft 439 kts 127°
2026-04-27 19:36 52.08507 5.62184 18943 ft 442 kts 127°
2026-04-27 19:36 52.06712 5.66269 19387 ft 445 kts 127°
2026-04-27 19:36 52.04852 5.70302 19840 ft 447 kts 131°
2026-04-27 19:36 52.02805 5.74103 20301 ft 448 kts 134°
2026-04-27 19:37 52.00702 5.77869 20737 ft 451 kts 134°
2026-04-27 19:37 51.98609 5.81693 21165 ft 454 kts 134°
2026-04-27 19:37 51.96522 5.85579 21572 ft 457 kts 134°
2026-04-27 19:37 51.94432 5.89482 21975 ft 460 kts 133°
2026-04-27 19:38 51.92329 5.93403 22384 ft 462 kts 133°
2026-04-27 19:38 51.90213 5.97343 22772 ft 465 kts 134°
2026-04-27 19:38 51.88078 6.01307 23135 ft 468 kts 134°
2026-04-27 19:38 51.85936 6.05274 23505 ft 470 kts 134°
2026-04-27 19:39 51.83770 6.09265 23864 ft 473 kts 134°